Terug naar catalogus

OPS 4682 DEB

ActiefPO
NORAD 38413·DEBRIS·🇺🇸 United States

Gelanceerd Apr 3, 1965 vanaf Vandenberg Space Force Base

Loading…

Volgende Passages (komende 24 uur)

TLE

VersSource: Space-Track

Epoch: Sep 14, 2026, 18:09 UTC

1 38413U 65027DS  26257.75653306  .00000396  00000-0  12872-2 0  9996
2 38413  90.2477  12.2616 0029578  56.3722 304.0216 13.00051862136916

Volg OPS 4682 DEB in realtime met AllMySat

Download on the App Store